KUIPER-00505

导读 | 豆包AI

KUIPER-00505(NORAD编号68886)是亚马逊Kuiper(现已更名为Leo)低轨卫星互联网星座中的一颗卫星。该星座旨在为全球网络覆盖不足区域提供高速低延迟卫星互联网连接,KUIPER-00505运行于近地轨道,属于星座一期组网卫星,该期计划共部署3232颗卫星,分布在590km、610km、630km三个轨道高度。作为亚马逊打造全球低轨卫星宽带网络的组成部分,它将服务家庭、企业及政府用户,支持从流媒体到物联网等多元应用,助力全球互联网接入覆盖。

Basic Information
目录编号:
68886
目录名称:
KUIPER-00505
国际标识:
2026-095Y
轨道中心:
EARTH
卫星名称:
KUIPER-00505
卫星全名:
KUIPER-00505
卫星状态:
在轨 (已飞行27 天)
发射日期:
2026-04-28 UTC
国别 :
美国 (US)
星等 :
--
Orbit Information
数据来源 国际轨道数据
星历时间: 2026-05-24T07:09:42+0800
1天前
查看轨道信息
半长轴: 6832.186km
偏心率: 0.0004217
轨道倾角: 51.882°
近地点辐角 181.748°
升交点赤经 359.448°
平近点角 178.349°
近地点: 451.167km
远地点: 456.931km
周期: 93.670分钟
每日圈数: 15.373166
Detailed Information
使用方式:
暂无
2D Orbit Map
3D Orbit Map
Orbit Altitude Analysis Chart
Orbit Inclination Analysis Chart
Orbit Comprehensive Analysis Chart
View Comprehensive Chart